Location: Baumgarten
(49.0970°N, 12.7493°E)
Time: 18:08:57
(UTC+00:00)

Thor Agena Rocket - Pass Details

Date: 05 July 2020
Orbit: 759 x 808 km, 99.0° (Epoch: 13 August)

Event Time Altitude Azimuth Distance (km) Brightness Sun altitude
Rises 22:22:39 0° 13° (NNE) 3,273 8.0 -17.3°
Reaches altitude 10° 22:24:59 10° 11° (N) 2,333 7.1 -17.4°
Maximum altitude 22:30:05 68° 289° (WNW) 829 3.7 -17.6°
Enters shadow 22:33:19 22° 212° (SSW) 1,616 4.8 -17.7°
